[[{"header":{"parameterUnit":"m.s-1","parameterCategory":1,"la1":30.2991,"la2":30.254,"lo1":-89.0895,"lo2":-89.0444,"dy":0.0017,"dx":0.0017,"nx":28,"ny":28,"refTime":"2025-04-13T03:00:00:Z","depth":0,"parameterNumber":2,"parameterNumberName":"U-component_of_WINDS"},"data":[0,0,0,0,0,0,0,0,0,0,0,0,0,0,0,0,0,0,0,0,0,0,0,0,0,0,0,0,0,0,0,0,0,0,0,0,0,0,0,0,0,0,0,0,0,0,0,0,0,0,0,0,0,0,0,0,0,0,-2.8837,-2.8838,0,-2.8923,-2.8924,-2.8925,-2.8884,-2.8881,-2.8879,-2.8877,-2.8964,-2.8969,-2.8973,0,0,0,0,0,0,0,0,0,0,0,0,0,-2.8638,-2.8642,-2.8837,-2.8838,-2.8839,-2.8923,-2.8924,-2.8925,-2.8884,-2.8881,-2.8879,-2.8876,-2.8963,-2.8968,-2.8973,0,0,0,0,0,0,0,0,0,0,0,0,0,-2.8724,-2.8643,-2.8837,-2.8829,-2.8829,-2.8922,-2.8924,-2.8925,-2.8885,-2.8881,-2.8878,-2.8875,-2.8961,-2.8968,-2.8974,-2.908,0,0,-2.8994,-2.8997,0,0,0,0,0,0,0,0,-2.8719,-2.8732,-2.8829,-2.883,-2.883,-2.8889,-2.8885,-2.8977,-2.8885,-2.8864,-2.8877,-2.8873,-2.8942,-2.895,-2.8973,-2.9084,-2.9088,-2.8995,-2.8999,-2.9001,-2.9003,0,0,0,0,0,0,0,-2.8714,-2.8728,-2.8871,-2.883,-2.8831,-2.8821,-2.883,-2.8903,-2.892,-2.8865,-2.8862,-2.8873,-2.8942,-2.8967,-2.8975,-2.9089,-2.8994,-2.9,-2.9004,-2.9007,-2.9291,-2.9294,0,0,0,0,0,0,-2.8708,-2.8723,-2.8868,-2.8873,-2.8766,-2.8827,-2.8837,-2.8873,-2.8919,-2.8923,-2.8876,-2.8871,-2.8957,-2.8967,-2.8978,-2.9104,-2.9001,-2.9007,-2.9011,-2.9287,-2.9292,-2.9296,0,0,0,0,0,0,-2.8704,-2.8721,-2.8865,-2.8798,-2.8815,-2.8834,-2.8876,-2.8877,-2.8902,-2.8927,-2.893,-2.8898,-2.8955,-2.8969,-2.9055,-2.9106,-2.901,-2.9016,-2.9283,-2.9289,-2.9294,-2.9357,0,0,0,0,0,0,-2.8698,-2.872,-2.876,-2.8799,-2.8819,-2.894,-2.8879,-2.8881,-2.8913,-2.8908,-2.8949,-2.8953,-2.8954,-2.9045,-2.9061,-2.9114,-2.9021,-2.9278,-2.9286,-2.9292,-2.9351,-2.9364,-2.9376,0,0,0,0,0,-2.8691,-2.8775,-2.8763,-2.878,-2.887,-2.8943,-2.8955,-2.8954,-2.8918,-2.8958,-2.8975,-2.8952,-2.9099,-2.9054,-2.9072,-2.9127,-2.9275,-2.9284,-2.9291,-2.9345,-2.9362,-2.9376,0,0,0,0,0,0,-2.8741,-2.878,-2.8766,-2.8865,-2.8901,-2.8936,-2.8987,-2.8972,-2.9019,-2.9012,-2.9009,-2.9019,-2.9108,-2.9126,-2.9076,-2.9232,-2.9181,-2.9193,-2.9216,-2.9232,-2.9244,-2.9237,-2.9027,0,0,0,0,0,-2.8764,-2.8821,-2.8851,-2.8935,-2.8954,-2.8968,-2.9,-2.8997,-2.9034,-2.9049,-2.9072,-2.9109,-2.9163,-2.9199,-2.9251,-2.9354,-2.9362,-2.9401,-2.9413,-2.9424,-2.9433,-2.9489,-2.9506,-2.9322,-2.9322,-2.9322,0,0,-2.8811,-2.8839,-2.8875,-2.8946,-2.8974,-2.9032,-2.8981,-2.9045,-2.9089,-2.9059,-2.9141,-2.9159,-2.9201,-2.9296,-2.9339,-2.9314,-2.9486,-2.9434,-2.9442,-2.9446,-2.9499,-2.9516,-2.9532,-2.9328,-2.9327,-2.9326,0,0,-2.8926,-2.8954,-2.9026,-2.9055,-2.9098,-2.9107,-2.9125,-2.9163,-2.9173,-2.9256,-2.9235,-2.9287,-2.9381,-2.9411,-2.9439,-2.9567,-2.9547,-2.9584,-2.9649,-2.9703,-2.9717,-2.973,-2.9774,-2.979,-2.9594,-2.9594,-2.9595,0,-2.8979,-2.9066,-2.9066,-2.9132,-2.9163,-2.914,-2.9213,-2.9241,-2.9299,-2.9321,-2.9293,-2.9411,-2.9437,-2.9538,-2.957,-2.9594,-2.9613,-2.9578,-2.9715,-2.9728,-2.974,-2.9782,-2.9799,-2.9598,-2.9598,-2.9598,-2.9597,0,-2.9128,-2.919,-2.9243,-2.9299,-2.9337,-2.9407,-2.9416,-2.9455,-2.9449,-2.9461,-2.9545,-2.9577,-2.9634,-2.9658,-2.9653,-2.9759,-2.9742,-2.9715,-2.9664,-2.9762,-2.9801,-2.9817,-2.9604,-2.9603,-2.9602,-2.9601,0,0,-2.9275,-2.9331,-2.935,-2.9375,-2.9422,-2.9469,-2.9538,-2.9594,-2.9626,-2.9668,-2.9724,-2.9805,-2.9781,-2.9812,-2.981,-2.9858,-2.9956,-2.9825,-2.9826,-2.9847,-3.0074,-3.0092,-3.0111,-2.9944,-2.9948,-2.995,-3.007,0,-2.9392,-2.9511,-2.9513,-2.9623,-2.9679,-2.9658,-2.9718,-2.9753,-2.9767,-2.9816,-2.9831,-2.9888,-2.9852,-2.9871,-2.9917,-2.9934,-3.0001,-2.9926,-2.9996,-2.9998,-2.9983,-3.0131,-3.0151,-3.0262,-3.0085,-3.0088,-3.009,0,-2.9543,-2.9589,-2.9704,-2.9743,-2.9766,-2.982,-2.9871,-2.992,-2.9959,-2.9965,-3.0001,-2.9993,-3.0062,-3.0011,-3.0107,-3.0056,-3.0085,-3.0098,-3.0102,-3.0107,-3.0048,-3.0138,-3.0297,-3.0313,-3.0114,-3.0112,-3.0111,0,-2.9636,-2.9727,-2.9808,-2.983,-2.9877,-2.9915,-2.9937,-2.9973,-3.0007,-3.0052,-3.0074,-3.0128,-3.0156,-3.0198,-3.0204,-3.0166,-3.03,-3.0249,-3.0306,-3.0306,-3.0333,-3.033,-3.0497,-3.0356,-3.0356,-3.0355,-3.0355,0,-2.9764,-2.9835,-2.985,-2.9899,-2.9978,-2.998,-3.0058,-3.0077,-3.0109,-3.0162,-3.0149,-3.0198,-3.0204,-3.0255,-3.0261,-3.0339,-3.0352,-3.0359,-3.0359,-3.0359,-3.0357,-3.0375,-3.0367,-3.036,-3.0359,-3.0358,-3.0357,0,-2.988,-2.9893,-2.9979,-3.0017,-3.0028,-3.0085,-3.0117,-3.0164,-3.0177,-3.0244,-3.026,-3.028,-3.0339,-3.035,-3.0421,-3.0425,-3.0517,-3.051,-3.0503,-3.0501,-3.0557,-3.0551,-3.0739,-3.0763,-3.0609,-3.061,-3.0611,0,-2.9959,-3.0013,-3.0058,-3.0092,-3.0115,-3.0171,-3.0205,-3.0211,-3.0247,-3.0297,-3.0338,-3.0396,-3.0443,-3.0539,-3.056,-3.0614,-3.0607,-3.067,-3.0615,-3.0613,-3.0606,-3.0601,-3.0606,-3.0679,-3.0681,-3.0682,-3.0683,0,-3.0099,-3.0103,-3.0153,-3.0206,-3.0248,-3.029,-3.0329,-3.0358,-3.0369,-3.0411,-3.0471,-3.0508,-3.058,-3.0638,-3.0692,-3.0714,-3.07,-3.0701,-3.0716,-3.0715,-3.0708,-3.071,-3.0529,-3.0696,-3.0694,-3.0694,-3.0693,-3.0692,-3.0197,-3.0244,-3.0282,-3.0339,-3.037,-3.0407,-3.0453,-3.0473,-3.0523,-3.0582,-3.0583,-3.0649,-3.0688,-3.0759,-3.0785,-3.0837,-3.0817,-3.084,-3.0846,-3.0851,-3.0855,-3.0702,-3.0848,-3.0847,-3.0847,-3.0847,-3.0846,0,-3.0334,-3.0358,-3.041,-3.0466,-3.0511,-3.0496,-3.0539,-3.0577,-3.0636,-3.0674,-3.072,-3.079,-3.0847,-3.0873,-3.0929,-3.0965,-3.096,-3.0979,-3.0975,-3.098,-3.0871,-3.085,-3.0982,-3.0982,-3.0982,-3.0982,-3.0982,-3.0982,-3.041,-3.0488,-3.0497,-3.059,-3.0614,-3.0679,-3.0705,-3.0739,-3.0769,-3.0848,-3.0895,-3.0912,-3.0945,-3.1003,-3.1054,-3.1061,-3.1081,-3.1103,-3.1106,-3.1002,-3.0988,-3.0975,-3.0956,-3.1108,-3.1108,-3.1211,-3.1211,-3.1212]},{"header":{"parameterUnit":"m.s-1","parameterCategory":1,"la1":30.2991,"la2":30.254,"lo1":-89.0895,"lo2":-89.0444,"dy":0.0017,"dx":0.0017,"nx":28,"ny":28,"refTime":"2025-04-13T03:00:00:Z","depth":0,"parameterNumber":3,"parameterNumberName":"V-component_of_WINDS"},"data":[0,0,0,0,0,0,0,0,0,0,0,0,0,0,0,0,0,0,0,0,0,0,0,0,0,0,0,0,0,0,0,0,0,0,0,0,0,0,0,0,0,0,0,0,0,0,0,0,0,0,0,0,0,0,0,0,0,0,0.5962,0.5962,0,0.5974,0.5974,0.5974,0.5928,0.5927,0.5926,0.5924,0.5937,0.5938,0.594,0,0,0,0,0,0,0,0,0,0,0,0,0,0.59,0.5902,0.5962,0.5962,0.5962,0.5974,0.5974,0.5974,0.5929,0.5927,0.5925,0.5924,0.5936,0.5938,0.594,0,0,0,0,0,0,0,0,0,0,0,0,0,0.5921,0.5902,0.5962,0.5941,0.5939,0.5974,0.5974,0.5974,0.5929,0.5927,0.5925,0.5923,0.5936,0.5938,0.594,0.5996,0,0,0.5948,0.5949,0,0,0,0,0,0,0,0,0.592,0.5923,0.5944,0.5942,0.594,0.5947,0.5957,0.5981,0.5929,0.5933,0.5924,0.5922,0.5942,0.5944,0.595,0.5996,0.5997,0.5948,0.5949,0.595,0.5951,0,0,0,0,0,0,0,0.5919,0.5923,0.5966,0.5944,0.5942,0.5931,0.5932,0.5961,0.5949,0.5932,0.5929,0.5931,0.5941,0.5948,0.595,0.5997,0.5948,0.595,0.5951,0.5952,0.609,0.6092,0,0,0,0,0,0,0.592,0.5922,0.5966,0.5967,0.5925,0.5934,0.5935,0.5947,0.5948,0.5946,0.5933,0.5929,0.5945,0.5948,0.5951,0.6016,0.595,0.5952,0.5954,0.6088,0.6091,0.6093,0,0,0,0,0,0,0.5919,0.5924,0.5965,0.5943,0.5948,0.5937,0.5952,0.5948,0.5956,0.5948,0.5946,0.5943,0.5944,0.5947,0.5985,0.6016,0.5954,0.5956,0.6085,0.6089,0.6092,0.6147,0,0,0,0,0,0,0.5917,0.5924,0.5945,0.5944,0.5949,0.6,0.5953,0.595,0.596,0.5955,0.5957,0.5956,0.5942,0.5982,0.5987,0.6018,0.5958,0.6083,0.6087,0.6091,0.6143,0.6152,0.616,0,0,0,0,0,0.5915,0.596,0.5946,0.5951,0.5975,0.6001,0.6004,0.5988,0.5963,0.5984,0.5979,0.5955,0.6012,0.5986,0.5992,0.6024,0.608,0.6086,0.6091,0.6139,0.615,0.616,0,0,0,0,0,0,0.5963,0.5959,0.5944,0.5989,0.5996,0.5994,0.6019,0.6001,0.6015,0.6009,0.5989,0.599,0.6031,0.6031,0.6003,0.6078,0.6042,0.6048,0.6076,0.6087,0.6096,0.6095,0.596,0,0,0,0,0,0.598,0.6002,0.5996,0.6037,0.6041,0.603,0.6041,0.6028,0.6034,0.6037,0.6035,0.6042,0.6061,0.6074,0.6092,0.6143,0.6143,0.6168,0.6177,0.6184,0.619,0.6217,0.6229,0.611,0.611,0.6109,0,0,0.6013,0.6013,0.6028,0.6047,0.6051,0.6074,0.6033,0.6059,0.6076,0.6041,0.6076,0.6076,0.6082,0.6127,0.6147,0.6129,0.6223,0.619,0.6196,0.6198,0.6224,0.6235,0.6245,0.6113,0.6112,0.6112,0,0,0.6085,0.6088,0.6122,0.6127,0.6133,0.6126,0.6134,0.6135,0.6133,0.6169,0.6143,0.6164,0.6197,0.6203,0.6211,0.6287,0.6266,0.6294,0.6339,0.6367,0.6376,0.6384,0.6412,0.6422,0.63,0.63,0.63,0,0.6125,0.616,0.6142,0.6171,0.618,0.615,0.6185,0.6191,0.6202,0.621,0.6189,0.6232,0.6234,0.628,0.6299,0.6306,0.6315,0.6293,0.6376,0.6384,0.6392,0.6418,0.6429,0.6303,0.6303,0.6302,0.6302,0,0.6209,0.6234,0.6261,0.6274,0.6286,0.6318,0.6306,0.6321,0.6307,0.6302,0.634,0.6341,0.6359,0.6369,0.6356,0.6414,0.6403,0.638,0.6343,0.6407,0.6431,0.6441,0.6308,0.6306,0.6305,0.6305,0,0,0.6311,0.6315,0.6325,0.6331,0.6337,0.6355,0.6386,0.6404,0.6417,0.6427,0.6453,0.6483,0.6462,0.647,0.6458,0.6482,0.6544,0.6456,0.6456,0.6472,0.6609,0.6626,0.6638,0.653,0.6532,0.6534,0.6608,0,0.6382,0.6435,0.6421,0.6474,0.6497,0.6469,0.6496,0.6503,0.6499,0.6518,0.6515,0.6536,0.6507,0.6512,0.6535,0.6531,0.6571,0.6526,0.6554,0.6555,0.6553,0.665,0.6668,0.6738,0.6618,0.6619,0.662,0,0.6472,0.6486,0.6541,0.6544,0.6553,0.6578,0.6593,0.6612,0.662,0.6615,0.6626,0.6609,0.664,0.6604,0.6647,0.6617,0.6628,0.6628,0.6631,0.6632,0.6591,0.6655,0.676,0.6771,0.6635,0.6634,0.6633,0,0.6541,0.6574,0.6611,0.6617,0.6621,0.664,0.6642,0.6648,0.666,0.6674,0.6681,0.6699,0.6708,0.6722,0.6711,0.6685,0.6756,0.6718,0.6754,0.6754,0.6769,0.6768,0.6878,0.6777,0.6777,0.6777,0.6777,0,0.6622,0.6657,0.6642,0.6665,0.6704,0.6688,0.6727,0.6726,0.6732,0.6755,0.6732,0.6754,0.6738,0.6759,0.675,0.6788,0.6792,0.679,0.6787,0.6792,0.6792,0.6798,0.6793,0.6779,0.6779,0.6778,0.6778,0,0.6705,0.6697,0.6736,0.6737,0.6739,0.6767,0.6769,0.679,0.6786,0.6815,0.6821,0.6814,0.6838,0.6828,0.6853,0.6847,0.6895,0.6886,0.6892,0.689,0.6926,0.6922,0.7043,0.7058,0.6948,0.6949,0.695,0,0.6757,0.6783,0.6788,0.6802,0.6806,0.6829,0.6841,0.6827,0.6841,0.6853,0.6873,0.6895,0.6911,0.695,0.6948,0.6967,0.6958,0.6999,0.696,0.6965,0.6958,0.6957,0.696,0.7006,0.7008,0.7009,0.7009,0,0.685,0.6845,0.6863,0.6881,0.6897,0.691,0.6921,0.6934,0.692,0.6937,0.6961,0.6974,0.7,0.7022,0.7039,0.7043,0.7024,0.7022,0.7031,0.7036,0.7038,0.7037,0.6913,0.7019,0.7018,0.7017,0.7017,0.7016,0.6919,0.6941,0.6948,0.697,0.6978,0.6989,0.701,0.7008,0.7028,0.7048,0.7039,0.7067,0.7075,0.7097,0.7103,0.7125,0.7109,0.7122,0.7125,0.7129,0.7133,0.7036,0.7128,0.7128,0.7127,0.7127,0.7127,0,0.701,0.7014,0.7035,0.7051,0.7069,0.7051,0.7063,0.7079,0.7104,0.7113,0.713,0.7158,0.718,0.718,0.72,0.7218,0.721,0.7224,0.7222,0.7223,0.7146,0.7137,0.723,0.723,0.723,0.723,0.723,0.7229,0.706,0.7097,0.7094,0.7135,0.7138,0.7166,0.7174,0.7185,0.7192,0.7225,0.7243,0.7243,0.7249,0.727,0.7289,0.7288,0.7297,0.7314,0.731,0.7238,0.7228,0.7218,0.7209,0.7316,0.7316,0.7384,0.7385,0.7386]}]]